Location: Bow
(51.5261°N, 0.0167°W)
Time: 12:18:40
(UTC+00:00)

Cosmos 1844 Rocket - Pass Details

Date: 18 September 2020
Orbit: 823 x 846 km, 71.0° (Epoch: 23 October)

Event Time Altitude Azimuth Distance (km) Brightness Sun altitude
Rises 21:23:02 0° 230° (SW) 3,352 5.9 -28.2°
Reaches altitude 10° 21:25:34 10° 236° (SW) 2,425 5.2 -28.5°
Maximum altitude 21:30:53 46° 309° (NW) 1,110 3.6 -29.0°
Drops below altitude 10° 21:36:16 10° 23° (NNE) 2,449 5.4 -29.6°
Sets 21:38:50 0° 29° (NNE) 3,390 6.1 -29.8°
